Location: Austin
(30.3000°N, 97.7500°W)
Time: 11:07:18
(UTC-05:00)

Cosmos 1937 Rocket - Pass Details

Date: 05 September 2024
Orbit: 744 x 777 km, 74.0° (Epoch: 10 September)

Event Time Altitude Azimuth Distance (km) Brightness Sun altitude
Rises 21:50:02 0° 341° (NNW) 3,244 7.4 -26.0°
Reaches altitude 10° 21:52:25 10° 340° (NNW) 2,318 6.5 -26.5°
Maximum altitude 21:57:40 74° 256° (WSW) 805 3.6 -27.5°
Enters shadow 21:57:56 73° 229° (SW) 812 3.5 -27.6°
